Regional Weather Roundup
Issued by NWS

Home | Current Version | Previous Version | Text Only | Print | Product List | Glossary Off
Versions: 1 2 3 4 5 6 7 8 9 10 11 12 13 14 15 16 17 18 19 20 21 22 23 24 25 26 27 28 29 30 31 32 33 34 35 36 37 38 39 40 41 42 43 44 45 46 47 48 49 50

000
ASUS43 KMKX 182121
RWRWI

WISCONSIN REGIONAL WEATHER ROUNDUP
NATIONAL WEATHER SERVICE MILWAUKEE/SULLIVAN WI
400 PM CDT MON SEP 18 2017

NOTE: "FAIR" INDICATES FEW OR NO CLOUDS BELOW 12,000 FEET WITH NO
SIGNIFICANT WEATHER AND/OR OBSTRUCTIONS TO VISIBILITY.

WIZ001-002-006>008-014>016-023>028-182200-
NORTHWEST WISCONSIN

CITY           SKY/WX    TMP DP  RH WIND       PRES   REMARKS
SUPERIOR ARPT  CLOUDY    60  52  75 SE5       30.02F
ASHLAND        PTSUNNY   60  50  69 SE9       30.05F
HAYWARD        LGT RAIN  55  51  86 SE7       30.04F
SIREN          CLOUDY    56  52  86 S7        30.03F
CUMBERLAND     RAIN      52  50  93 SE8       30.04F
RICE LAKE      RAIN      53  51  94 SE6       30.06S
CHETEK         RAIN      54  53  97 CALM      30.05F
LADYSMITH      LGT RAIN  56  55  94 E5        30.08F
EAU CLAIRE     LGT RAIN  57  55  93 E7        30.03F
MENOMONIE      HVY RAIN  55  55 100 CALM      30.04F
NEW RICHMOND   DRIZZLE   53  52  97 SE6       30.03R
OSCEOLA        CLOUDY    54  54 100 SE7       30.04S
$$

WIZ003>005-009-010-017-018-182200-
NORTH CENTRAL WISCONSIN

CITY           SKY/WX    TMP DP  RH WIND       PRES   REMARKS
MANITOWISH WTR LGT RAIN  54  54 100 S5        30.09F
ARBOR VITAE    RAIN      57  54  89 E5        30.08F
WOODRUFF       RAIN      57  54  89 E5        30.08F
RHINELANDER    LGT RAIN  59  56  89 NE3       30.11F
EAGLE RIVER    RAIN      58  55  90 CALM      30.11F
LAND O LAKES   RAIN      56  54  91 CALM      30.12F
PHILLIPS       LGT RAIN  55  55 100 CALM      30.07F
TOMAHAWK       DRIZZLE   57  54  87 E3        30.07F
MEDFORD        CLOUDY    61  54  79 E3        30.06F
MERRILL        CLOUDY    63  55  77 E5        30.07F
$$

WIZ029-030-035-036-043>047-182200-
CENTRAL WISCONSIN

CITY           SKY/WX    TMP DP  RH WIND       PRES   REMARKS
WAUSAU         CLOUDY    64  53  67 E8        30.04F
MOSINEE        CLOUDY    64  55  72 E6        30.05F
MARSHFIELD     CLOUDY    63  53  70 E5        30.04F
STEVENS POINT  CLOUDY    65  53  65 E8        30.05F
WAUPACA        CLOUDY    73  55  53 SE9       30.05F
WAUTOMA        PTSUNNY   73  57  57 E9        30.03
WISC RAPIDS    CLOUDY    69  56  62 E8        30.04F
CAMP DOUGLAS   CLOUDY    70  55  60 E6        30.01F
$$

WIZ011>013-019>022-031-037>040-048>050-182200-
NORTHEAST WISCONSIN

CITY           SKY/WX    TMP DP  RH WIND       PRES   REMARKS
ANTIGO         CLOUDY    62  53  73 SE3       30.10S
SHAWANO        CLOUDY    69  54  59 E7        30.07F
OCONTO         CLOUDY    64  53  65 E7        30.09F
STURGEON BAY   MOSUNNY   64  53  67 E3        30.11F
GREEN BAY      MOSUNNY   70  57  63 NE10      30.08F
MANITOWOC      MOSUNNY   65  54  67 E6        30.10F
APPLETON       MOSUNNY   70  50  49 SE10      30.05F
CLINTONVILLE   CLOUDY    70  52  52 E7        30.06F
OSHKOSH        SUNNY     70  55  59 E12       30.05F
$$

WIZ032>034-041-042-053>061-182200-
SOUTHWEST WISCONSIN

CITY           SKY/WX    TMP DP  RH WIND       PRES   REMARKS
LA CROSSE      RAIN      62  55  77 E6        30.03R
SPARTA         CLOUDY    68  51  53 CALM      30.03S
VIROQUA        CLOUDY    68  48  49 SE3       30.02F
BOSCOBEL       CLOUDY    77  48  35 S3        29.99F
PRAIRIE DU CHI CLOUDY    72  49  43 CALM      30.00F
PLATTEVILLE    PTSUNNY   76  49  38 SE7       30.01F
$$

WIZ056-057-062-063-064-067-068-182200-
SOUTH CENTRAL WISCONSIN

CITY           SKY/WX    TMP DP  RH WIND       PRES   REMARKS
REEDSBURG      MOSUNNY   75  48  38 SE8       30.00F
BARABOO/DELLS  SUNNY     75  43  31 SE7       30.02F
LONE ROCK      MOSUNNY   77  47  34 SE6       29.99F
MINERAL POINT  CLOUDY    77  43  29 SE9       30.01F
MADISON        MOSUNNY   77  47  34 SE9       30.00F
MIDDLETON      SUNNY     77  43  29 SE13      30.01F
WATERTOWN      SUNNY     73  57  56 E8        30.03F
MONROE         PTSUNNY   79  41  25 SE9       30.01F
JANESVILLE     PTSUNNY   81  39  22 E9        30.01F
$$

WIZ051-052-058>065-066-070>072-182200-
SOUTHEAST WISCONSIN

CITY           SKY/WX    TMP DP  RH WIND       PRES   REMARKS
MILWAUKEE      MOSUNNY   68  58  70 NE8       30.06F
WAUKESHA       SUNNY     70  55  60 E8        30.07F
MILWAUKEE/TIMM SUNNY     70  52  52 E9        30.07F
RACINE         SUNNY     70  59  68 E6        30.07F
BURLINGTON     SUNNY     73  58  58 E8        30.04F
KENOSHA        SUNNY     70  54  56 E9        30.06F
FOND DU LAC    SUNNY     72  51  47 SE13      30.05F
SHEBOYGAN      SUNNY     67  55  65 NE6       30.08F
WEST BEND        N/A     68  52  56 E9        30.07F
JUNEAU         SUNNY     71  54  56 E10       30.06F
$$

LSZ147-162-182200-
LAKE SUPERIOR

STATION/POSITION TIME  TEMP    WIND        PRES    WAVE
                       AIR SEA DIR/SP/G            HT/PER
                 (UTC) (F)     (DEG/KT/KT) (MB)    (FT/S)
W MID LAKE BUOY  2050   56 55  130/  2/  2 1018.2F   1
DEVILS ISLAND    2100   58     110/  2/  4 1017.5F
SAXON HARBOR     2030   58     200/  4/  7 1017.9R
$$

LMZ867-665-643>646-182200-
LAKE MICHIGAN

STATION/POSITION TIME  TEMP    WIND        PRES    WAVE
                       AIR SEA DIR/SP/G            HT/PER
                 (UTC) (F)     (DEG/KT/KT) (MB)    (FT/S)
S GREEN BAY BUOY 2100   64 67   60/ 12/ 14 1018.9
N MID LAKE BUOY  2050   61 65   50/  2/  2 1020.7S   0
NORTHPORT PIER   2040   62      90/  5/  7 1019.3F
KEWAUNEE LAKESHO 2054   63      30/  2/  4 1018.7F
SHEBOYGAN LAKESH 2100   63      30/  8/  9 1018.4F
PORT WASHINGTON  2040   67      50/  7/  8 1019.0F
ATWATER BUOY     2009   64 68   60/  6/ 10 1018.5F
MILWAUKEE LAKESH 2100   64      50/  8/ 10   N/A
S MID LAKE BUOY  2050   63 69  360/  6/  6 1017.9F   1/ 4
KENOSHA   LAKESH 2100   65      70/  6/  8 1017.3
$$

TC  - TEMPERATURE IN CELSIUS
VSB - VISIBILITY IN STATUTE MILES
WCI - WIND CHILL INDEX
HX  - HEAT INDEX





USA.gov is the U.S. government's official web portal to all federal, state and local government web resources and services.